[[{"header":{"parameterUnit":"m.s-1","parameterCategory":1,"la1":30.2992,"la2":30.254,"lo1":-89.0895,"lo2":-89.0443,"dy":0.0025,"dx":0.0025,"nx":19,"ny":19,"refTime":"2026-03-06T03:00:00:Z","depth":0,"parameterNumber":2,"parameterNumberName":"U-component_of_WINDS"},"data":[0,0,0,-4.6019,-4.6024,-4.6249,-4.625,-4.6528,-4.653,0,0,0,0,0,0,0,0,0,0,0,-4.5947,-4.5948,-4.6019,-4.6024,-4.6248,-4.625,-4.6527,-4.653,0,0,0,0,0,0,0,0,0,0,0,-4.5946,-4.5948,-4.595,-4.6025,-4.6248,-4.625,-4.6527,-4.6361,0,0,0,0,0,0,0,0,0,0,-4.6144,-4.6071,-4.5947,-4.595,-4.6026,-4.6248,-4.625,-4.6353,-4.6371,-4.6422,0,-4.6466,0,-4.6503,-4.6548,-4.6549,0,0,0,-4.6029,-4.6056,-4.6122,-4.595,-4.6028,-4.6248,-4.6149,-4.6363,-4.6384,-4.6446,-4.647,-4.648,-4.6507,-4.655,-4.6551,-4.6833,-4.6834,0,0,-4.6016,-4.5983,-4.6108,-4.6135,-4.6099,-4.6141,-4.6155,-4.6376,-4.6399,-4.6471,-4.6487,-4.6512,-4.6552,-4.6554,-4.6832,-4.6833,0,0,0,-4.5978,-4.5975,-4.6036,-4.6123,-4.6165,-4.6148,-4.6164,-4.6389,-4.6412,-4.649,-4.6515,-4.6553,-4.6557,-4.6831,-4.6832,-4.6854,0,0,0,-4.597,-4.5952,-4.603,-4.6012,-4.616,-4.6279,-4.6172,-4.6397,-4.6423,-4.6514,-4.6554,-4.6559,-4.683,-4.6832,-4.6851,-4.6868,0,0,0,-4.5934,-4.5948,-4.5979,-4.601,-4.6106,-4.6277,-4.6312,-4.6403,-4.6438,-4.6549,-4.656,-4.6829,-4.6831,-4.6848,-4.6863,-4.6931,0,0,0,-4.5885,-4.5994,-4.5978,-4.611,-4.6103,-4.6289,-4.6311,-4.6451,-4.655,-4.6555,-4.683,-4.6832,-4.6847,-4.686,-4.6928,-4.6979,-4.6999,0,0,-4.6003,-4.6007,-4.6087,-4.608,-4.626,-4.6258,-4.6442,-4.6563,-4.6604,-4.6755,-4.6762,-4.6852,-4.6863,-4.693,-4.7125,-4.714,0,0,0,-4.6113,-4.617,-4.6225,-4.6318,-4.6415,-4.6499,-4.6596,-4.6642,-4.6772,-4.6675,-4.6898,-4.6905,-4.6946,-4.6972,-4.6985,-4.7021,-4.6844,-4.6844,-4.6843,-4.6229,-4.6278,-4.6414,-4.649,-4.6581,-4.6682,-4.676,-4.6839,-4.6861,-4.6913,-4.6956,-4.7068,-4.7098,-4.7108,-4.7145,-4.6991,-4.6991,-4.6991,-4.6991,-4.6404,-4.649,-4.6521,-4.6663,-4.6715,-4.6835,-4.6939,-4.6951,-4.7071,-4.7039,-4.7078,-4.7035,-4.7123,-4.7158,-4.6993,-4.6993,-4.6993,-4.6992,-4.6992,-4.6481,-4.6531,-4.6587,-4.6729,-4.6834,-4.691,-4.7024,-4.7068,-4.711,-4.7149,-4.7199,-4.7198,-4.7201,-4.7171,-4.7171,-4.7172,-4.7172,-4.7172,-4.7172,-4.6537,-4.66,-4.669,-4.6806,-4.6873,-4.6968,-4.7076,-4.7143,-4.7229,-4.7252,-4.7253,-4.7268,-4.7124,-4.7084,-4.7178,-4.7177,-4.7177,-4.7176,-4.7176,-4.6687,-4.6662,-4.6801,-4.6869,-4.701,-4.7111,-4.717,-4.7305,-4.7368,-4.7423,-4.7434,-4.7321,-4.7326,-4.7316,-4.7283,-4.7424,-4.7424,-4.7424,-4.7424,-4.6749,-4.6759,-4.6912,-4.7018,-4.7128,-4.7195,-4.7353,-4.744,-4.7526,-4.7568,-4.7556,-4.7518,-4.7507,-4.7519,-4.7505,-4.7475,-4.766,-4.7661,-4.7661,-4.6844,-4.6867,-4.699,-4.7075,-4.719,-4.7289,-4.7438,-4.756,-4.7652,-4.7671,-4.7602,-4.7592,-4.7532,-4.751,-4.752,-4.7497,-4.7443,0,0]},{"header":{"parameterUnit":"m.s-1","parameterCategory":1,"la1":30.2992,"la2":30.254,"lo1":-89.0895,"lo2":-89.0443,"dy":0.0025,"dx":0.0025,"nx":19,"ny":19,"refTime":"2026-03-06T03:00:00:Z","depth":0,"parameterNumber":3,"parameterNumberName":"V-component_of_WINDS"},"data":[0,0,0,2.1808,2.1811,2.1983,2.1983,2.2177,2.2178,0,0,0,0,0,0,0,0,0,0,0,2.1741,2.1742,2.1808,2.1812,2.1982,2.1983,2.2177,2.2178,0,0,0,0,0,0,0,0,0,0,0,2.1741,2.1742,2.1743,2.1812,2.1982,2.1983,2.2176,2.2056,0,0,0,0,0,0,0,0,0,0,2.1895,2.1816,2.1741,2.1743,2.1813,2.1982,2.1984,2.2051,2.2064,2.2089,0,2.2105,0,2.2145,2.219,2.219,0,0,0,2.1824,2.1805,2.1867,2.1743,2.1815,2.1982,2.1909,2.2059,2.2073,2.2105,2.2108,2.2116,2.2148,2.2191,2.2192,2.2295,2.2294,0,0,2.1814,2.1763,2.1857,2.1875,2.1846,2.1903,2.1914,2.2068,2.2067,2.2109,2.2121,2.2151,2.2192,2.2193,2.2295,2.2295,0,0,0,2.1779,2.1755,2.1814,2.1867,2.1899,2.1908,2.192,2.2061,2.2084,2.2123,2.2154,2.2193,2.2195,2.2295,2.2295,2.2241,0,0,0,2.1774,2.1735,2.1809,2.1779,2.1896,2.1982,2.1909,2.2073,2.2092,2.2153,2.2193,2.2197,2.2295,2.2295,2.2243,2.2224,0,0,0,2.1736,2.1731,2.175,2.1776,2.1848,2.1981,2.2013,2.2079,2.211,2.219,2.2197,2.2295,2.2295,2.2245,2.2227,2.2238,0,0,0,2.1679,2.1698,2.1748,2.1781,2.1846,2.1946,2.2013,2.209,2.2152,2.2194,2.2295,2.2295,2.2245,2.2228,2.2239,2.2237,2.2232,0,0,2.1674,2.1695,2.1719,2.177,2.1848,2.1924,2.1996,2.2101,2.2155,2.2245,2.2249,2.2242,2.2227,2.2238,2.2219,2.2214,0,0,0,2.17,2.1716,2.1749,2.1807,2.1889,2.1959,2.2059,2.21,2.2179,2.2191,2.2251,2.2243,2.2252,2.2254,2.2249,2.2261,2.2293,2.2293,2.2293,2.1616,2.1688,2.1733,2.1826,2.1881,2.1988,2.204,2.2113,2.2165,2.2179,2.2205,2.2185,2.2185,2.2183,2.2194,2.2211,2.221,2.221,2.221,2.1616,2.1651,2.1726,2.1796,2.1872,2.1933,2.2038,2.2074,2.2143,2.217,2.2181,2.2204,2.2175,2.2189,2.2207,2.2207,2.2208,2.2208,2.2208,2.1569,2.1598,2.1648,2.1743,2.1809,2.1903,2.1967,2.2033,2.2096,2.2108,2.2145,2.2146,2.2156,2.2121,2.2121,2.2121,2.2121,2.2121,2.2121,2.15,2.1558,2.1604,2.1697,2.1745,2.1818,2.1929,2.1979,2.2052,2.2095,2.2096,2.2149,2.2159,2.216,2.212,2.212,2.212,2.212,2.212,2.1472,2.149,2.1559,2.1609,2.1726,2.1789,2.1875,2.1972,2.2024,2.2054,2.2107,2.2103,2.2129,2.2133,2.2134,2.209,2.209,2.209,2.209,2.1432,2.1453,2.1542,2.1617,2.1698,2.1785,2.1865,2.1953,2.2046,2.2084,2.21,2.2108,2.2109,2.2135,2.2139,2.2141,2.21,2.21,2.21,2.142,2.1453,2.1506,2.1599,2.1698,2.1781,2.186,2.1944,2.2054,2.2102,2.2115,2.2114,2.2128,2.2129,2.2173,2.2177,2.2183,0,0]}]]